Regional Weather Roundup
Issued by NWS

Home | Current Version | Previous Version | Text Only | Print | Product List | Glossary Off
Versions: 1 2 3 4 5 6 7 8 9 10 11 12 13 14 15 16 17 18 19 20 21 22 23 24 25 26 27 28 29 30 31 32 33 34 35 36 37 38 39 40 41 42 43 44 45 46 47 48 49 50

000
ASUS43 KIND 132259
RWRIN

WEATHER ROUNDUP FOR INDIANA
NATIONAL WEATHER SERVICE INDIANAPOLIS IN
600 PM EST SAT FEB 13 2016

NOTE: "FAIR" INDICATES FEW OR NO CLOUDS BELOW 12,000 FEET WITH NO
SIGNIFICANT WEATHER AND/OR OBSTRUCTIONS TO VISIBILITY.

* - STATION DOES NOT REPORT WEATHER SUCH AS PRECIPITATION OR FOG.

+ - STATION NOT QUALITY CONTROLLED BY THE NATIONAL WEATHER SERVICE.
    USE DATA WITH CAUTION...ESPECIALLY DEWPOINT AND RELATIVE
    HUMIDITY OBSERVATIONS.

INZ001>003-010>013-019-020-140000-
NORTHWEST INDIANA

CITY           SKY/WX    TMP DP  RH WIND       PRES   REMARKS
GARY /AIRPORT/ PTCLDY    19 -11  25 CALM      30.53F
RENSSELAER +   CLEAR     18 -11  27 W3        30.51F

$$

LMZ046-743>745-140000-
SOUTHERN LAKE MICHIGAN

STATION/POSITION TIME  TEMP    WIND        PRES    WAVE
                       AIR SEA DIR/SP/G            HT
                 (UTC) (F)     (DEG/KT/KT) (MB)    (FT)
BURNS HARBOR     2200   15      CALM  /  7 1034.2F
MICHIGAN CITY    2200   15     270/ 10/ 12   N/A

$$

INZ004-005-014>016-021>024-140000-
NORTH CENTRAL INDIANA

CITY           SKY/WX    TMP DP  RH WIND       PRES   REMARKS
ELKHART        LGT SNOW  12   7  79 MISG      30.50S
GOSHEN         CLOUDY    12   5  73 W10       30.50R WCI  -1
SOUTH BEND     LGT SNOW  12   5  73 W9        30.51S WCI   0

$$

INZ006>009-017-018-025>027-140000-
NORTHEAST INDIANA

CITY           SKY/WX    TMP DP  RH WIND       PRES   REMARKS
ANGOLA *+      MOCLDY    12   5  73 NW10      30.44S WCI  -1
FORT WAYNE     PTCLDY    13   2  61 W10       30.50S WCI   0

$$

INZ028-029-035-036-043>045-051>053-140000-
WEST CENTRAL INDIANA

CITY           SKY/WX    TMP DP  RH WIND       PRES   REMARKS
CRAWFORDSVL +  CLEAR     14  -5  43 CALM      30.51F
GREENCASTLE +  CLOUDY    18  -9  29 NW3       30.52S
LAFAYETTE      PTCLDY    16  -3  43 NW6       30.52F WCI   7
TERRE HAUTE    CLOUDY    19  -1  41 NW5       30.54F WCI  12

$$

INZ030>032-037>040-046>048-054>057-064-065-140000-
CENTRAL INDIANA

CITY           SKY/WX    TMP DP  RH WIND       PRES   REMARKS
GREENWOOD *+   CLEAR     19   1  45 NW6       30.51S WCI  11
INDIANAPOLIS   MOCLDY    17  -4  39 NW9       30.50S WCI   6
-EAGLE CREEK   CLEAR     17  -2  43 NW8       30.50F WCI   7
KOKOMO *+      CLEAR     16  -2  45 NW9       30.51S WCI   4
MT COMFORT *+  CLEAR     16  -4  41 NW7       30.51S WCI   6
SHELBYVILLE    CLEAR     19   0  43 NW7       30.50S WCI  10

$$

INZ033-034-041-042-049-050-058-059-140000-
EAST CENTRAL INDIANA

CITY           SKY/WX    TMP DP  RH WIND       PRES   REMARKS
MUNCIE         PTCLDY    14   0  53 NW9       30.49S WCI   2

$$

INZ060-061-067>069-081>083-085>088-140000-
SOUTHWEST INDIANA

CITY           SKY/WX    TMP DP  RH WIND       PRES   REMARKS
EVANSVILLE     PTCLDY    24   0  35 N5        30.55F WCI  18
HUNTINGBURG *+ PTCLDY    21   1  42 N8        30.54F WCI  12

$$

INZ062-063-066-070>080-084-089>092-140000-
SOUTH CENTRAL AND SOUTHEAST INDIANA

CITY           SKY/WX    TMP DP  RH WIND       PRES   REMARKS
BLOOMINGTON    PTCLDY    19  -3  38 W5        30.51S WCI  12
MADISON *+     CLEAR     21   1  42 CALM      30.53R
SEYMOUR +      CLOUDY    23   0  36 N5        30.53R WCI  17

$$




USA.gov is the U.S. government's official web portal to all federal, state and local government web resources and services.